User: anonymous   Login
Location: Grange Verzio
(44.5000°N, 6.9833°E)
Time: 15:01:33
(UTC+00:00)
Language:

NUSAT 1 DEB - Orbit

View from above orbital plane
View from above orbital plane
View from above satellite
View from above satellite

Ground track
Ground track

The orbit data is extracted from the following two-line orbital elements,

1 43427U 16033E   24054.11038003  .00133324  00000-0  28873-2 0  9990
2 43427  97.5859   5.1724 0063651 215.0476 144.6575 15.41789985407943
Epoch (UTC): 23 February 2024 02:38:56
Eccentricity: 0.0063651
inclination: 97.5859°
perigee height: 397 km
apogee height: 484 km
right ascension of ascending node: 5.1724°
argument of perigee: 215.0476°
revolutions per day: 15.41789985
mean anomaly at epoch: 144.6575°
orbit number at epoch: 40794

The dashed part of the orbit path shows where the satellite is in the earth's shadow,  

DLR